[[{"header":{"parameterUnit":"m.s-1","parameterCategory":1,"la1":30.2991,"la2":30.254,"lo1":-89.0895,"lo2":-89.0444,"dy":0.0017,"dx":0.0017,"nx":28,"ny":28,"refTime":"2025-08-31T21:00:00:Z","depth":0,"parameterNumber":2,"parameterNumberName":"U-component_of_WINDS"},"data":[0,0,0,0,0,0,0,0,0,0,0,0,0,0,0,0,0,0,0,0,0,0,0,0,0,0,0,0,0,0,0,0,0,0,0,0,0,0,0,0,0,0,0,0,0,0,0,0,0,0,0,0,0,0,0,0,0,0,-3.8304,-3.8304,0,-3.828,-3.8279,-3.8279,-3.8148,-3.8145,-3.8142,-3.8139,-3.8116,-3.8118,-3.8121,0,0,0,0,0,0,0,0,0,0,0,0,0,-3.8242,-3.8243,-3.8304,-3.8304,-3.8304,-3.828,-3.8279,-3.8279,-3.8149,-3.8145,-3.8141,-3.8138,-3.8115,-3.8118,-3.8121,0,0,0,0,0,0,0,0,0,0,0,0,0,-3.8248,-3.8244,-3.8304,-3.8236,-3.8229,-3.828,-3.8279,-3.8279,-3.815,-3.8145,-3.814,-3.8136,-3.8115,-3.8118,-3.8121,-3.8236,0,0,-3.8132,-3.8133,0,0,0,0,0,0,0,0,-3.8248,-3.8251,-3.8246,-3.8241,-3.8233,-3.8212,-3.8249,-3.8265,-3.8151,-3.818,-3.8139,-3.8134,-3.8152,-3.8152,-3.8158,-3.8235,-3.8234,-3.8132,-3.8134,-3.8136,-3.8137,0,0,0,0,0,0,0,-3.8248,-3.8251,-3.8294,-3.8246,-3.8239,-3.8207,-3.8203,-3.8251,-3.8193,-3.8177,-3.8168,-3.8166,-3.8148,-3.8155,-3.8156,-3.8234,-3.8132,-3.8135,-3.8137,-3.8139,-3.8407,-3.8412,0,0,0,0,0,0,-3.8257,-3.8252,-3.8295,-3.8294,-3.8229,-3.8212,-3.8207,-3.8224,-3.8192,-3.8182,-3.817,-3.816,-3.8151,-3.8152,-3.8155,-3.8289,-3.8136,-3.8139,-3.8141,-3.8402,-3.8409,-3.8414,0,0,0,0,0,0,-3.8256,-3.8262,-3.8296,-3.827,-3.8272,-3.8218,-3.8238,-3.8226,-3.8233,-3.8187,-3.8176,-3.8188,-3.8148,-3.815,-3.8218,-3.8287,-3.814,-3.8144,-3.8396,-3.8404,-3.8411,-3.8558,0,0,0,0,0,0,-3.8255,-3.8262,-3.8304,-3.8272,-3.8274,-3.8359,-3.8242,-3.8229,-3.8239,-3.8225,-3.8201,-3.8192,-3.8144,-3.8213,-3.8221,-3.8289,-3.8146,-3.839,-3.84,-3.8409,-3.8547,-3.857,-3.859,0,0,0,0,0,-3.8253,-3.8346,-3.8307,-3.8313,-3.8325,-3.8363,-3.8364,-3.8306,-3.8245,-3.8288,-3.8258,-3.8193,-3.8278,-3.8221,-3.8229,-3.8299,-3.8385,-3.8397,-3.8408,-3.8537,-3.8565,-3.8589,0,0,0,0,0,0,-3.8388,-3.8341,-3.8297,-3.8382,-3.8378,-3.834,-3.8392,-3.8337,-3.835,-3.8337,-3.8266,-3.8262,-3.834,-3.8326,-3.8264,-3.841,-3.8321,-3.8334,-3.8416,-3.8442,-3.8463,-3.8465,-3.8149,0,0,0,0,0,-3.8428,-3.8461,-3.8418,-3.8499,-3.8498,-3.8447,-3.846,-3.8417,-3.8409,-3.8406,-3.8382,-3.8378,-3.8404,-3.8422,-3.8443,-3.8544,-3.8538,-3.8597,-3.8618,-3.8636,-3.8648,-3.8703,-3.8729,-3.8452,-3.8451,-3.8451,0,0,-3.8511,-3.8489,-3.8514,-3.8525,-3.8516,-3.8554,-3.8445,-3.8489,-3.8517,-3.8413,-3.8475,-3.8458,-3.8449,-3.8534,-3.8571,-3.8525,-3.8724,-3.865,-3.8665,-3.8668,-3.8718,-3.8744,-3.8768,-3.8459,-3.8458,-3.8457,0,0,-3.8681,-3.8667,-3.8733,-3.8727,-3.8715,-3.868,-3.8697,-3.8668,-3.8653,-3.8714,-3.8638,-3.8671,-3.8716,-3.8713,-3.8718,-3.8891,-3.8831,-3.89,-3.9011,-3.9065,-3.9087,-3.9106,-3.917,-3.9193,-3.8912,-3.8913,-3.8913,0,-3.8785,-3.8837,-3.8774,-3.8824,-3.8832,-3.874,-3.8808,-3.8805,-3.8801,-3.881,-3.8758,-3.8815,-3.8802,-3.8887,-3.893,-3.8936,-3.8954,-3.8902,-3.9089,-3.9108,-3.9124,-3.9184,-3.9208,-3.8921,-3.892,-3.8919,-3.8918,0,-3.8967,-3.9006,-3.9061,-3.906,-3.9074,-3.9132,-3.9079,-3.9102,-3.9058,-3.9029,-3.9095,-3.9076,-3.9093,-3.911,-3.9067,-3.919,-3.9162,-3.9101,-3.901,-3.9161,-3.9216,-3.9238,-3.8933,-3.893,-3.8928,-3.8926,0,0,-3.922,-3.9185,-3.9207,-3.9206,-3.9188,-3.9217,-3.9272,-3.9289,-3.931,-3.9311,-3.9357,-3.9399,-3.9344,-3.9349,-3.9305,-3.9353,-3.9494,-3.9286,-3.9285,-3.9327,-3.9631,-3.9678,-3.9705,-3.9455,-3.9459,-3.9462,-3.9632,0,-3.9384,-3.9476,-3.9422,-3.9523,-3.9558,-3.9473,-3.9522,-3.9517,-3.9493,-3.952,-3.9493,-3.9525,-3.9448,-3.9451,-3.9494,-3.9468,-3.9554,-3.9455,-3.9498,-3.9501,-3.9504,-3.9733,-3.9782,-3.9943,-3.9653,-3.9656,-3.9659,0,-3.9587,-3.9598,-3.9702,-3.9679,-3.9692,-3.9737,-3.9749,-3.9776,-3.977,-3.9749,-3.9757,-3.9702,-3.9757,-3.9667,-3.9743,-3.9676,-3.9691,-3.9681,-3.9686,-3.9689,-3.9589,-3.9743,-3.9993,-4.0018,-3.9692,-3.9689,-3.9687,0,-3.9764,-3.9804,-3.9872,-3.9874,-3.9849,-3.9883,-3.9874,-3.9862,-3.9877,-3.9888,-3.9897,-3.9915,-3.9925,-3.9941,-3.9893,-3.9832,-3.9976,-3.9882,-3.9962,-3.9964,-3.9996,-3.9995,-4.0254,-4.0005,-4.0004,-4.0004,-4.0004,0,-3.9953,-4.002,-3.9951,-3.9994,-4.0068,-4.0006,-4.0081,-4.0063,-4.0055,-4.0093,-4.0021,-4.0059,-3.9993,-4.0025,-3.9989,-4.0058,-4.0063,-4.0049,-4.0038,-4.0056,-4.0058,-4.0065,-4.0053,-4.001,-4.0009,-4.0008,-4.0007,0,-4.0162,-4.0118,-4.0187,-4.0158,-4.0153,-4.0209,-4.0184,-4.0223,-4.0194,-4.0244,-4.0252,-4.0208,-4.0242,-4.0196,-4.0225,-4.0201,-4.0297,-4.0269,-4.0299,-4.0291,-4.0375,-4.0368,-4.0647,-4.0682,-4.041,-4.0413,-4.0415,0,-4.0286,-4.0336,-4.0313,-4.0333,-4.0329,-4.0363,-4.0377,-4.032,-4.0338,-4.0336,-4.0376,-4.0404,-4.0423,-4.0482,-4.0453,-4.0476,-4.0449,-4.0545,-4.0452,-4.0469,-4.0452,-4.045,-4.0456,-4.0565,-4.0568,-4.0571,-4.0573,0,-4.0511,-4.0488,-4.0511,-4.0529,-4.0548,-4.0559,-4.0565,-4.0586,-4.0526,-4.0551,-4.0584,-4.06,-4.0631,-4.066,-4.0676,-4.0668,-4.0612,-4.0603,-4.0622,-4.0641,-4.0657,-4.0651,-4.0353,-4.0596,-4.0594,-4.0592,-4.0591,-4.059,-4.0682,-4.0724,-4.0715,-4.0744,-4.0743,-4.075,-4.0786,-4.0762,-4.079,-4.081,-4.0774,-4.0819,-4.0813,-4.0828,-4.0827,-4.0862,-4.082,-4.0849,-4.0856,-4.0864,-4.0878,-4.0651,-4.0864,-4.0863,-4.0863,-4.0862,-4.0862,0,-4.0905,-4.0895,-4.0923,-4.0934,-4.0958,-4.0903,-4.0907,-4.0931,-4.097,-4.097,-4.0991,-4.1032,-4.1061,-4.1035,-4.1059,-4.1092,-4.1067,-4.1101,-4.1098,-4.1098,-4.0913,-4.0894,-4.1121,-4.112,-4.112,-4.112,-4.112,-4.112,-4.1023,-4.1092,-4.1068,-4.1136,-4.1126,-4.1168,-4.1175,-4.1183,-4.1182,-4.1231,-4.1255,-4.1238,-4.1228,-4.1252,-4.1277,-4.1268,-4.1281,-4.1325,-4.1308,-4.1136,-4.111,-4.1086,-4.1068,-4.1328,-4.1328,-4.1489,-4.1491,-4.1492]},{"header":{"parameterUnit":"m.s-1","parameterCategory":1,"la1":30.2991,"la2":30.254,"lo1":-89.0895,"lo2":-89.0444,"dy":0.0017,"dx":0.0017,"nx":28,"ny":28,"refTime":"2025-08-31T21:00:00:Z","depth":0,"parameterNumber":3,"parameterNumberName":"V-component_of_WINDS"},"data":[0,0,0,0,0,0,0,0,0,0,0,0,0,0,0,0,0,0,0,0,0,0,0,0,0,0,0,0,0,0,0,0,0,0,0,0,0,0,0,0,0,0,0,0,0,0,0,0,0,0,0,0,0,0,0,0,0,0,-1.0717,-1.0717,0,-1.0703,-1.0703,-1.0703,-1.0657,-1.0656,-1.0655,-1.0654,-1.064,-1.0641,-1.0642,0,0,0,0,0,0,0,0,0,0,0,0,0,-1.0704,-1.0704,-1.0717,-1.0717,-1.0717,-1.0703,-1.0703,-1.0703,-1.0658,-1.0656,-1.0655,-1.0654,-1.064,-1.0641,-1.0642,0,0,0,0,0,0,0,0,0,0,0,0,0,-1.0702,-1.0704,-1.0717,-1.0693,-1.069,-1.0703,-1.0703,-1.0703,-1.0658,-1.0656,-1.0655,-1.0653,-1.064,-1.0641,-1.0642,-1.0678,0,0,-1.0644,-1.0645,0,0,0,0,0,0,0,0,-1.0702,-1.0702,-1.0697,-1.0694,-1.0692,-1.0681,-1.0693,-1.0694,-1.0658,-1.067,-1.0654,-1.0653,-1.0655,-1.0655,-1.0655,-1.0677,-1.0676,-1.0644,-1.0645,-1.0645,-1.0646,0,0,0,0,0,0,0,-1.0702,-1.0703,-1.0712,-1.0697,-1.0694,-1.0682,-1.068,-1.0693,-1.0671,-1.0669,-1.0666,-1.0665,-1.0653,-1.0655,-1.0655,-1.0676,-1.0644,-1.0645,-1.0646,-1.0646,-1.0725,-1.0727,0,0,0,0,0,0,-1.0706,-1.0703,-1.0712,-1.0711,-1.0693,-1.0684,-1.0681,-1.0686,-1.0671,-1.0667,-1.0666,-1.0663,-1.0654,-1.0654,-1.0654,-1.0695,-1.0645,-1.0646,-1.0647,-1.0724,-1.0726,-1.0727,0,0,0,0,0,0,-1.0706,-1.0707,-1.0713,-1.0706,-1.0706,-1.0685,-1.0691,-1.0686,-1.0687,-1.0669,-1.0665,-1.0671,-1.0653,-1.0653,-1.0672,-1.0694,-1.0646,-1.0647,-1.0722,-1.0724,-1.0726,-1.0777,0,0,0,0,0,0,-1.0706,-1.0707,-1.0721,-1.0707,-1.0707,-1.0731,-1.0692,-1.0687,-1.0689,-1.0684,-1.0673,-1.0669,-1.0651,-1.0671,-1.0673,-1.0694,-1.0648,-1.072,-1.0723,-1.0726,-1.0773,-1.0781,-1.0787,0,0,0,0,0,-1.0705,-1.0736,-1.0722,-1.0724,-1.0724,-1.0733,-1.0733,-1.0712,-1.0691,-1.0704,-1.0692,-1.067,-1.0691,-1.0673,-1.0675,-1.0697,-1.0718,-1.0722,-1.0725,-1.077,-1.0779,-1.0787,0,0,0,0,0,0,-1.0754,-1.0734,-1.0718,-1.0745,-1.0741,-1.0725,-1.0742,-1.0722,-1.0724,-1.0719,-1.0693,-1.0691,-1.0713,-1.0707,-1.0687,-1.073,-1.0701,-1.0705,-1.0734,-1.0742,-1.0749,-1.0751,-1.0649,0,0,0,0,0,-1.0768,-1.0777,-1.0759,-1.0785,-1.0783,-1.0763,-1.0766,-1.075,-1.0745,-1.0743,-1.0732,-1.0727,-1.0733,-1.0737,-1.0741,-1.0771,-1.0768,-1.0787,-1.0794,-1.08,-1.0804,-1.0819,-1.0827,-1.0739,-1.0739,-1.0739,0,0,-1.0797,-1.0787,-1.0795,-1.0794,-1.0789,-1.0799,-1.0762,-1.0774,-1.0781,-1.0744,-1.0762,-1.0754,-1.0747,-1.0771,-1.0782,-1.0767,-1.0827,-1.0804,-1.0809,-1.081,-1.0823,-1.0832,-1.0839,-1.0742,-1.0741,-1.0741,0,0,-1.0855,-1.0848,-1.0869,-1.0864,-1.0856,-1.0842,-1.0847,-1.0833,-1.0827,-1.0843,-1.0816,-1.0823,-1.0834,-1.083,-1.0829,-1.0883,-1.0863,-1.0885,-1.0922,-1.0937,-1.0944,-1.095,-1.0969,-1.0977,-1.0889,-1.0889,-1.0889,0,-1.0892,-1.0906,-1.0882,-1.0896,-1.0896,-1.0862,-1.0883,-1.0879,-1.0873,-1.0874,-1.0857,-1.0868,-1.0861,-1.0884,-1.0898,-1.0898,-1.0903,-1.0887,-1.0945,-1.095,-1.0956,-1.0974,-1.0981,-1.0892,-1.0892,-1.0892,-1.0891,0,-1.0952,-1.0962,-1.0979,-1.0974,-1.0976,-1.0993,-1.0971,-1.0976,-1.0959,-1.0947,-1.0964,-1.0954,-1.0955,-1.0959,-1.0943,-1.098,-1.097,-1.0949,-1.092,-1.0967,-1.0984,-1.0991,-1.0896,-1.0895,-1.0894,-1.0894,0,0,-1.1042,-1.1022,-1.1028,-1.1025,-1.1013,-1.1021,-1.1035,-1.1036,-1.1041,-1.1037,-1.1049,-1.1058,-1.1038,-1.1037,-1.102,-1.1033,-1.1076,-1.101,-1.1009,-1.1023,-1.1116,-1.1132,-1.1141,-1.1062,-1.1063,-1.1064,-1.1116,0,-1.1097,-1.1122,-1.11,-1.1129,-1.1137,-1.1104,-1.1117,-1.1111,-1.11,-1.1105,-1.1092,-1.1098,-1.1071,-1.1071,-1.1082,-1.1069,-1.1095,-1.1065,-1.1073,-1.1073,-1.1076,-1.1149,-1.1167,-1.1217,-1.1123,-1.1124,-1.1125,0,-1.1165,-1.1164,-1.1194,-1.1179,-1.1182,-1.1194,-1.1192,-1.1198,-1.119,-1.118,-1.1178,-1.1157,-1.117,-1.114,-1.1158,-1.1138,-1.1139,-1.1133,-1.1135,-1.1135,-1.1103,-1.1153,-1.1232,-1.124,-1.1135,-1.1134,-1.1133,0,-1.1228,-1.1234,-1.1252,-1.1251,-1.1234,-1.1243,-1.1236,-1.1227,-1.1228,-1.1226,-1.1227,-1.1227,-1.1227,-1.1227,-1.1206,-1.1186,-1.1226,-1.1194,-1.1219,-1.1219,-1.123,-1.1229,-1.1311,-1.123,-1.123,-1.1229,-1.1229,0,-1.1293,-1.1312,-1.128,-1.1292,-1.1312,-1.1286,-1.1307,-1.1297,-1.1288,-1.1297,-1.1268,-1.1277,-1.1248,-1.1254,-1.1237,-1.1254,-1.1254,-1.1247,-1.1242,-1.125,-1.1251,-1.1251,-1.1248,-1.1231,-1.1231,-1.1231,-1.123,0,-1.1367,-1.1347,-1.1365,-1.1346,-1.1342,-1.1358,-1.1343,-1.1352,-1.1338,-1.1349,-1.135,-1.1328,-1.1332,-1.1311,-1.1312,-1.1301,-1.1326,-1.1316,-1.1329,-1.1326,-1.1352,-1.135,-1.1438,-1.1448,-1.1359,-1.136,-1.1361,0,-1.141,-1.1424,-1.1407,-1.1411,-1.1405,-1.1412,-1.1413,-1.1387,-1.1389,-1.138,-1.139,-1.1393,-1.1393,-1.1402,-1.1386,-1.1386,-1.1376,-1.1406,-1.1376,-1.1383,-1.1377,-1.1376,-1.1378,-1.1413,-1.1414,-1.1415,-1.1416,0,-1.1489,-1.1477,-1.148,-1.1479,-1.1481,-1.1478,-1.1474,-1.1479,-1.145,-1.1454,-1.1458,-1.1459,-1.1459,-1.1462,-1.1459,-1.1451,-1.1429,-1.1425,-1.1431,-1.1439,-1.1447,-1.1443,-1.1347,-1.1424,-1.1423,-1.1423,-1.1422,-1.1422,-1.1549,-1.156,-1.1549,-1.1553,-1.1546,-1.1543,-1.1551,-1.1537,-1.154,-1.1538,-1.1522,-1.1529,-1.152,-1.1513,-1.1508,-1.1513,-1.1498,-1.1506,-1.1509,-1.1511,-1.1516,-1.1445,-1.1512,-1.1512,-1.1511,-1.1511,-1.1511,0,-1.1626,-1.1617,-1.1621,-1.1615,-1.1618,-1.1596,-1.1589,-1.1593,-1.16,-1.1592,-1.1593,-1.1597,-1.1599,-1.1582,-1.1582,-1.1589,-1.1579,-1.159,-1.159,-1.1588,-1.1529,-1.1524,-1.1598,-1.1598,-1.1598,-1.1598,-1.1598,-1.1598,-1.1667,-1.1684,-1.1671,-1.1684,-1.1675,-1.1681,-1.168,-1.1676,-1.167,-1.1676,-1.1677,-1.1666,-1.1655,-1.1653,-1.1653,-1.1648,-1.165,-1.1664,-1.1656,-1.1601,-1.1592,-1.1584,-1.158,-1.1665,-1.1665,-1.1715,-1.1715,-1.1716]}]]